Time,TemperatureF,DewpointF,PressureIn,WindDirection,WindDirectionDegrees,WindSpeedMPH,WindSpeedGustMPH,Humidity,HourlyPrecipIn,Conditions,Clouds,dailyrainin,SolarRadiationWatts/m^2,SoftwareType,DateUTC
2013-01-26 00:21:00,29.0,25.0,-100.00,SW,229,11.0,24.0,84,0.00,,,0.00,0.000000,,2013-01-26 07:21:00,
2013-01-26 00:33:00,29.0,25.0,-100.00,SW,229,11.0,24.0,84,0.00,,,0.00,0.000000,,2013-01-26 07:33:00,
2013-01-26 00:41:00,29.0,25.0,-100.00,SW,229,11.0,24.0,84,0.00,,,0.00,0.000000,,2013-01-26 07:41:00,
2013-01-26 00:51:00,29.0,25.0,-100.00,SW,229,11.0,24.0,84,0.00,,,0.00,0.000000,,2013-01-26 07:51:00,
2013-01-26 00:52:00,29.0,25.0,-100.00,SW,227,13.0,22.0,85,0.00,,,0.00,0.000000,,2013-01-26 07:52:00,
2013-01-26 01:11:00,29.0,25.0,-100.00,SW,227,13.0,22.0,85,0.00,,,0.00,0.000000,,2013-01-26 08:11:00,
2013-01-26 01:21:00,29.0,25.0,-100.00,SW,227,13.0,22.0,85,0.00,,,0.00,0.000000,,2013-01-26 08:21:00,
2013-01-26 01:32:00,29.0,25.0,-100.00,SW,227,13.0,22.0,85,0.00,,,0.00,0.000000,,2013-01-26 08:32:00,
2013-01-26 01:42:00,29.0,25.0,-100.00,SW,227,13.0,22.0,85,0.00,,,0.00,0.000000,,2013-01-26 08:42:00,
2013-01-26 02:11:00,29.0,27.0,-100.00,WSW,239,11.0,26.0,93,0.00,,,0.00,0.000000,,2013-01-26 09:11:00,
2013-01-26 02:22:00,29.0,27.0,-100.00,WSW,239,11.0,26.0,93,0.00,,,0.00,0.000000,,2013-01-26 09:22:00,
2013-01-26 02:32:00,29.0,27.0,-100.00,WSW,239,11.0,26.0,93,0.00,,,0.00,0.000000,,2013-01-26 09:32:00,
2013-01-26 02:42:00,29.0,27.0,-100.00,WSW,239,11.0,26.0,93,0.00,,,0.00,0.000000,,2013-01-26 09:42:00,
2013-01-26 02:51:00,29.0,27.0,-100.00,WSW,239,11.0,26.0,93,0.00,,,0.00,0.000000,,2013-01-26 09:51:00,
2013-01-26 02:52:00,28.0,26.0,-100.00,WSW,239,8.0,26.0,91,0.00,,,0.00,0.000000,,2013-01-26 09:52:00,
2013-01-26 03:21:00,28.0,26.0,-100.00,WSW,239,8.0,26.0,91,0.00,,,0.00,0.000000,,2013-01-26 10:21:00,
2013-01-26 03:32:00,28.0,26.0,-100.00,WSW,239,8.0,26.0,91,0.00,,,0.00,0.000000,,2013-01-26 10:32:00,
2013-01-26 03:42:00,28.0,26.0,-100.00,WSW,239,8.0,26.0,91,0.00,,,0.00,0.000000,,2013-01-26 10:42:00,
2013-01-26 03:52:00,28.0,25.0,-100.00,WSW,245,7.0,22.0,87,0.00,,,0.00,0.000000,,2013-01-26 10:52:00,
2013-01-26 04:12:00,28.0,25.0,-100.00,WSW,245,7.0,22.0,87,0.00,,,0.00,0.000000,,2013-01-26 11:12:00,
2013-01-26 04:22:00,28.0,25.0,-100.00,WSW,245,7.0,22.0,87,0.00,,,0.00,0.000000,,2013-01-26 11:22:00,
2013-01-26 04:32:00,28.0,25.0,-100.00,WSW,245,7.0,22.0,87,0.00,,,0.00,0.000000,,2013-01-26 11:32:00,
2013-01-26 04:42:00,28.0,25.0,-100.00,WSW,245,7.0,22.0,87,0.00,,,0.00,0.000000,,2013-01-26 11:42:00,
2013-01-26 04:52:00,28.0,25.0,-100.00,WSW,243,7.0,20.0,87,0.00,,,0.00,0.000000,,2013-01-26 11:52:00,
2013-01-26 05:12:00,28.0,25.0,-100.00,WSW,243,7.0,20.0,87,0.00,,,0.00,0.000000,,2013-01-26 12:12:00,
2013-01-26 05:22:00,28.0,25.0,-100.00,WSW,243,7.0,20.0,87,0.00,,,0.00,0.000000,,2013-01-26 12:22:00,
2013-01-26 05:33:00,28.0,25.0,-100.00,WSW,243,7.0,20.0,87,0.00,,,0.00,0.000000,,2013-01-26 12:33:00,
2013-01-26 05:42:00,28.0,25.0,-100.00,WSW,243,7.0,20.0,87,0.00,,,0.00,0.000000,,2013-01-26 12:42:00,
2013-01-26 05:52:00,28.0,25.0,-100.00,West,269,3.0,17.0,89,0.00,,,0.00,0.000000,,2013-01-26 12:52:00,
2013-01-26 06:12:00,28.0,25.0,-100.00,West,269,3.0,17.0,89,0.00,,,0.00,0.000000,,2013-01-26 13:12:00,
2013-01-26 06:22:00,28.0,25.0,-100.00,West,269,3.0,17.0,89,0.00,,,0.00,0.000000,,2013-01-26 13:22:00,
2013-01-26 06:32:00,28.0,25.0,-100.00,West,269,3.0,17.0,89,0.00,,,0.00,0.000000,,2013-01-26 13:32:00,
2013-01-26 06:42:00,28.0,25.0,-100.00,West,269,3.0,17.0,89,0.00,,,0.00,0.000000,,2013-01-26 13:42:00,
2013-01-26 06:52:00,27.0,24.0,-100.00,SW,225,4.0,15.0,90,0.00,,,0.00,0.000000,,2013-01-26 13:52:00,
2013-01-26 07:22:00,27.0,24.0,-100.00,SW,225,4.0,15.0,90,0.00,,,0.00,0.000000,,2013-01-26 14:22:00,
2013-01-26 07:32:00,27.0,24.0,-100.00,SW,225,4.0,15.0,90,0.00,,,0.00,0.000000,,2013-01-26 14:32:00,
2013-01-26 07:43:00,27.0,24.0,-100.00,SW,225,4.0,15.0,90,0.00,,,0.00,0.000000,,2013-01-26 14:43:00,
2013-01-26 07:52:00,27.0,23.0,-100.00,WSW,237,6.0,9.0,85,0.00,,,0.00,0.000000,,2013-01-26 14:52:00,
2013-01-26 08:22:00,27.0,23.0,-100.00,WSW,237,6.0,9.0,85,0.00,,,0.00,0.000000,,2013-01-26 15:22:00,
2013-01-26 08:32:00,27.0,23.0,-100.00,WSW,237,6.0,9.0,85,0.00,,,0.00,0.000000,,2013-01-26 15:32:00,
2013-01-26 08:43:00,27.0,23.0,-100.00,WSW,237,6.0,9.0,85,0.00,,,0.00,0.000000,,2013-01-26 15:43:00,
2013-01-26 08:52:00,30.0,23.0,-100.00,WSW,248,7.0,15.0,76,0.00,,,0.00,10.000000,,2013-01-26 15:52:00,
2013-01-26 09:12:00,30.0,23.0,-100.00,WSW,248,7.0,15.0,76,0.00,,,0.00,10.000000,,2013-01-26 16:12:00,
2013-01-26 09:22:00,30.0,23.0,-100.00,WSW,248,7.0,15.0,76,0.00,,,0.00,10.000000,,2013-01-26 16:22:00,
2013-01-26 09:33:00,30.0,23.0,-100.00,WSW,248,7.0,15.0,76,0.00,,,0.00,10.000000,,2013-01-26 16:33:00,
2013-01-26 09:42:00,30.0,23.0,-100.00,WSW,248,7.0,15.0,76,0.00,,,0.00,10.000000,,2013-01-26 16:42:00,
2013-01-26 09:52:00,32.0,20.0,-100.00,WSW,251,6.0,15.0,62,0.00,,,0.00,130.000000,,2013-01-26 16:52:00,
2013-01-26 10:22:00,32.0,20.0,-100.00,WSW,251,6.0,15.0,62,0.00,,,0.00,130.000000,,2013-01-26 17:22:00,
2013-01-26 10:33:00,32.0,20.0,-100.00,WSW,251,6.0,15.0,62,0.00,,,0.00,130.000000,,2013-01-26 17:33:00,
2013-01-26 10:42:00,32.0,20.0,-100.00,WSW,251,6.0,15.0,62,0.00,,,0.00,130.000000,,2013-01-26 17:42:00,
2013-01-26 10:52:00,37.0,24.0,-100.00,WSW,255,7.0,16.0,59,0.00,,,0.00,326.000000,,2013-01-26 17:52:00,
2013-01-26 11:22:00,37.0,24.0,-100.00,WSW,255,7.0,16.0,59,0.00,,,0.00,326.000000,,2013-01-26 18:22:00,
2013-01-26 11:33:00,37.0,24.0,-100.00,WSW,255,7.0,16.0,59,0.00,,,0.00,326.000000,,2013-01-26 18:33:00,
2013-01-26 11:42:00,37.0,24.0,-100.00,WSW,255,7.0,16.0,59,0.00,,,0.00,326.000000,,2013-01-26 18:42:00,
2013-01-26 11:52:00,40.0,27.0,-100.00,WSW,237,9.0,19.0,60,0.00,,,0.00,476.000000,,2013-01-26 18:52:00,
2013-01-26 12:12:00,40.0,27.0,-100.00,WSW,237,9.0,19.0,60,0.00,,,0.00,476.000000,,2013-01-26 19:12:00,
2013-01-26 12:22:00,40.0,27.0,-100.00,WSW,237,9.0,19.0,60,0.00,,,0.00,476.000000,,2013-01-26 19:22:00,
2013-01-26 12:32:00,40.0,27.0,-100.00,WSW,237,9.0,19.0,60,0.00,,,0.00,476.000000,,2013-01-26 19:32:00,
2013-01-26 12:42:00,40.0,27.0,-100.00,WSW,237,9.0,19.0,60,0.00,,,0.00,476.000000,,2013-01-26 19:42:00,
2013-01-26 12:52:00,40.0,29.0,-100.00,SW,230,11.0,20.0,64,0.00,,,0.00,557.000000,,2013-01-26 19:52:00,
2013-01-26 13:22:00,40.0,29.0,-100.00,SW,230,11.0,20.0,64,0.00,,,0.00,557.000000,,2013-01-26 20:22:00,
2013-01-26 13:32:00,40.0,29.0,-100.00,SW,230,11.0,20.0,64,0.00,,,0.00,557.000000,,2013-01-26 20:32:00,
2013-01-26 13:42:00,40.0,29.0,-100.00,SW,230,11.0,20.0,64,0.00,,,0.00,557.000000,,2013-01-26 20:42:00,
2013-01-26 14:12:00,37.0,24.0,-100.00,SW,235,8.0,23.0,59,0.00,,,0.00,421.000000,,2013-01-26 21:12:00,
2013-01-26 14:22:00,37.0,24.0,-100.00,SW,235,8.0,23.0,59,0.00,,,0.00,421.000000,,2013-01-26 21:22:00,
2013-01-26 14:32:00,37.0,24.0,-100.00,SW,235,8.0,23.0,59,0.00,,,0.00,421.000000,,2013-01-26 21:32:00,
2013-01-26 14:42:00,37.0,24.0,-100.00,SW,235,8.0,23.0,59,0.00,,,0.00,421.000000,,2013-01-26 21:42:00,
2013-01-26 14:51:00,37.0,24.0,-100.00,SW,235,8.0,23.0,59,0.00,,,0.00,421.000000,,2013-01-26 21:51:00,
2013-01-26 15:12:00,41.0,29.0,-100.00,SW,217,12.0,19.0,62,0.00,,,0.00,399.000000,,2013-01-26 22:12:00,
2013-01-26 15:22:00,41.0,29.0,-100.00,SW,217,12.0,19.0,62,0.00,,,0.00,399.000000,,2013-01-26 22:22:00,
2013-01-26 15:32:00,41.0,29.0,-100.00,SW,217,12.0,19.0,62,0.00,,,0.00,399.000000,,2013-01-26 22:32:00,
2013-01-26 15:42:00,41.0,29.0,-100.00,SW,217,12.0,19.0,62,0.00,,,0.00,399.000000,,2013-01-26 22:42:00,
2013-01-26 15:51:00,41.0,29.0,-100.00,SW,217,12.0,19.0,62,0.00,,,0.00,399.000000,,2013-01-26 22:51:00,
2013-01-26 15:52:00,39.0,29.0,-100.00,SW,214,9.0,20.0,67,0.00,,,0.00,261.000000,,2013-01-26 22:52:00,
2013-01-26 16:12:00,39.0,29.0,-100.00,SW,214,9.0,20.0,67,0.00,,,0.00,261.000000,,2013-01-26 23:12:00,
2013-01-26 16:22:00,39.0,29.0,-100.00,SW,214,9.0,20.0,67,0.00,,,0.00,261.000000,,2013-01-26 23:22:00,
2013-01-26 16:32:00,39.0,29.0,-100.00,SW,214,9.0,20.0,67,0.00,,,0.00,261.000000,,2013-01-26 23:32:00,
2013-01-26 16:42:00,39.0,29.0,-100.00,SW,214,9.0,20.0,67,0.00,,,0.00,261.000000,,2013-01-26 23:42:00,
2013-01-26 17:21:00,38.0,30.0,-100.00,SSW,199,5.0,19.0,72,0.00,,,0.00,126.000000,,2013-01-27 00:21:00,
2013-01-26 17:32:00,38.0,30.0,-100.00,SSW,199,5.0,19.0,72,0.00,,,0.00,126.000000,,2013-01-27 00:32:00,
2013-01-26 17:42:00,38.0,30.0,-100.00,SSW,199,5.0,19.0,72,0.00,,,0.00,126.000000,,2013-01-27 00:42:00,
2013-01-26 17:51:00,38.0,30.0,-100.00,SSW,199,5.0,19.0,72,0.00,,,0.00,126.000000,,2013-01-27 00:51:00,
2013-01-26 17:52:00,36.0,29.0,-100.00,South,186,4.0,14.0,74,0.00,,,0.00,57.000000,,2013-01-27 00:52:00,
2013-01-26 18:22:00,36.0,29.0,-100.00,South,186,4.0,14.0,74,0.00,,,0.00,57.000000,,2013-01-27 01:22:00,
2013-01-26 18:32:00,36.0,29.0,-100.00,South,186,4.0,14.0,74,0.00,,,0.00,57.000000,,2013-01-27 01:32:00,
2013-01-26 18:42:00,36.0,29.0,-100.00,South,186,4.0,14.0,74,0.00,,,0.00,57.000000,,2013-01-27 01:42:00,
2013-01-26 18:52:00,33.0,24.0,-100.00,SE,144,2.0,8.0,70,0.00,,,0.00,3.000000,,2013-01-27 01:52:00,
2013-01-26 19:12:00,33.0,24.0,-100.00,SE,144,2.0,8.0,70,0.00,,,0.00,3.000000,,2013-01-27 02:12:00,
2013-01-26 19:22:00,33.0,24.0,-100.00,SE,144,2.0,8.0,70,0.00,,,0.00,3.000000,,2013-01-27 02:22:00,
2013-01-26 19:32:00,33.0,24.0,-100.00,SE,144,2.0,8.0,70,0.00,,,0.00,3.000000,,2013-01-27 02:32:00,
2013-01-26 19:42:00,33.0,24.0,-100.00,SE,144,2.0,8.0,70,0.00,,,0.00,3.000000,,2013-01-27 02:42:00,
2013-01-26 20:11:00,34.0,24.0,-100.00,SE,143,5.0,8.0,66,0.00,,,0.00,0.000000,,2013-01-27 03:11:00,
2013-01-26 20:21:00,34.0,24.0,-100.00,SE,143,5.0,8.0,66,0.00,,,0.00,0.000000,,2013-01-27 03:21:00,
2013-01-26 20:32:00,34.0,24.0,-100.00,SE,143,5.0,8.0,66,0.00,,,0.00,0.000000,,2013-01-27 03:32:00,
2013-01-26 20:42:00,34.0,24.0,-100.00,SE,143,5.0,8.0,66,0.00,,,0.00,0.000000,,2013-01-27 03:42:00,
2013-01-26 20:51:00,34.0,24.0,-100.00,SE,143,5.0,8.0,66,0.00,,,0.00,0.000000,,2013-01-27 03:51:00,
2013-01-26 21:21:00,36.0,25.0,-100.00,South,181,6.0,10.0,65,0.00,,,0.00,0.000000,,2013-01-27 04:21:00,
2013-01-26 21:32:00,36.0,25.0,-100.00,South,181,6.0,10.0,65,0.00,,,0.00,0.000000,,2013-01-27 04:32:00,
2013-01-26 21:41:00,36.0,25.0,-100.00,South,181,6.0,10.0,65,0.00,,,0.00,0.000000,,2013-01-27 04:41:00,
2013-01-26 21:51:00,36.0,25.0,-100.00,South,181,6.0,10.0,65,0.00,,,0.00,0.000000,,2013-01-27 04:51:00,
2013-01-26 21:52:00,34.0,25.0,-100.00,SW,214,6.0,11.0,68,0.00,,,0.00,0.000000,,2013-01-27 04:52:00,
2013-01-26 22:22:00,34.0,25.0,-100.00,SW,214,6.0,11.0,68,0.00,,,0.00,0.000000,,2013-01-27 05:22:00,
2013-01-26 22:32:00,34.0,25.0,-100.00,SW,214,6.0,11.0,68,0.00,,,0.00,0.000000,,2013-01-27 05:32:00,
2013-01-26 22:41:00,34.0,25.0,-100.00,SW,214,6.0,11.0,68,0.00,,,0.00,0.000000,,2013-01-27 05:41:00,
2013-01-26 23:11:00,35.0,26.0,-100.00,SSW,199,5.0,12.0,69,0.00,,,0.00,0.000000,,2013-01-27 06:11:00,
2013-01-26 23:21:00,35.0,26.0,-100.00,SSW,199,5.0,12.0,69,0.00,,,0.00,0.000000,,2013-01-27 06:21:00,
2013-01-26 23:32:00,35.0,26.0,-100.00,SSW,199,5.0,12.0,69,0.00,,,0.00,0.000000,,2013-01-27 06:32:00,
2013-01-26 23:42:00,35.0,26.0,-100.00,SSW,199,5.0,12.0,69,0.00,,,0.00,0.000000,,2013-01-27 06:42:00,
2013-01-26 23:51:00,35.0,26.0,-100.00,SSW,199,5.0,12.0,69,0.00,,,0.00,0.000000,,2013-01-27 06:51:00,